Location: Newark
(23.2528°N, 105.1886°E)
Time: 16:40:44
(UTC+00:00)

N. Korean satellite - Visible Passes

Search period start: 22 October 2019 00:00
Search period end: 01 November 2019 00:00
Orbit: 455 x 508 km, 97.2° (Epoch: 21 October)

Date Brightness Start Highest point End Pass type
(mag) Time Alt. Az. Time Alt. Az. Time Alt. Az.
23 Oct 9.4 10:54:52 10° SSW 10:57:37 22° W 11:00:21 10° NW visible
23 Oct 7.7 22:29:26 10° NNE 22:33:01 51° E 22:36:37 10° S visible
24 Oct 9.6 22:04:50 10° NE 22:07:42 21° E 22:10:33 10° SSE visible
26 Oct 10.2 11:13:37 10° WSW 11:15:05 12° W 11:16:32 10° WNW visible
27 Oct 8.8 10:46:40 10° SSW 10:49:42 29° W 10:52:45 10° NW visible
27 Oct 8.3 22:21:41 10° NNE 22:25:10 39° E 22:28:38 10° S visible
28 Oct 10.0 21:57:23 10° NE 21:59:48 17° E 22:02:14 10° SE visible
30 Oct 9.9 11:04:55 10° SW 11:07:07 16° W 11:09:20 10° WNW visible
30 Oct 6.9 22:38:51 10° NNE 22:42:34 77° E 22:46:16 10° S visible
31 Oct 8.9 22:13:58 10° NE 22:17:15 30° E 22:20:32 10° SSE visible
